Year,Month,Day,Hour,Minute,Value (Times are PST for temperature in C)
2019,05,27,00,00,15.40
2019,05,27,00,01,15.40
2019,05,27,00,02,15.40
2019,05,27,00,03,15.40
2019,05,27,00,04,15.30
2019,05,27,00,05,15.30
2019,05,27,00,06,15.30
2019,05,27,00,07,15.30
2019,05,27,00,08,15.30
2019,05,27,00,09,15.20
2019,05,27,00,10,15.20
2019,05,27,00,11,15.20
2019,05,27,00,12,15.20
2019,05,27,00,13,15.10
2019,05,27,00,14,15.10
2019,05,27,00,15,15.10
2019,05,27,00,16,15.10
2019,05,27,00,17,15.10
2019,05,27,00,18,15.10
2019,05,27,00,19,15.10
2019,05,27,00,20,15.10
2019,05,27,00,21,15.10
2019,05,27,00,22,15.00
2019,05,27,00,23,15.00
2019,05,27,00,24,15.00
2019,05,27,00,25,15.00
2019,05,27,00,26,15.00
2019,05,27,00,27,14.90
2019,05,27,00,28,14.90
2019,05,27,00,29,14.90
2019,05,27,00,30,14.90
2019,05,27,00,31,14.90
2019,05,27,00,32,14.90
2019,05,27,00,33,14.90
2019,05,27,00,34,14.90
2019,05,27,00,35,14.90
2019,05,27,00,36,14.90
2019,05,27,00,37,14.90
2019,05,27,00,38,14.90
2019,05,27,00,39,14.90
2019,05,27,00,40,14.90
2019,05,27,00,41,14.90
2019,05,27,00,42,14.90
2019,05,27,00,43,14.90
2019,05,27,00,44,14.90
2019,05,27,00,45,14.90
2019,05,27,00,46,14.90
2019,05,27,00,47,14.90
2019,05,27,00,48,14.90
2019,05,27,00,49,14.90
2019,05,27,00,50,14.90
2019,05,27,00,51,14.90
2019,05,27,00,52,14.90
2019,05,27,00,53,14.90
2019,05,27,00,54,14.90
2019,05,27,00,55,14.90
2019,05,27,00,56,14.90
2019,05,27,00,57,14.90
2019,05,27,00,58,14.90
2019,05,27,00,59,14.90
2019,05,27,01,00,14.90
2019,05,27,01,01,14.90
2019,05,27,01,02,14.90
2019,05,27,01,03,14.90
2019,05,27,01,04,14.80
2019,05,27,01,05,14.80
2019,05,27,01,06,14.80
2019,05,27,01,07,14.80
2019,05,27,01,08,14.80
2019,05,27,01,09,14.80
2019,05,27,01,10,14.80
2019,05,27,01,11,14.80
2019,05,27,01,12,14.70
2019,05,27,01,13,14.70
2019,05,27,01,14,14.70
2019,05,27,01,15,14.70
2019,05,27,01,16,14.70
2019,05,27,01,17,14.70
2019,05,27,01,18,14.70
2019,05,27,01,19,14.70
2019,05,27,01,20,14.70
2019,05,27,01,21,14.70
2019,05,27,01,22,14.60
2019,05,27,01,23,14.60
2019,05,27,01,24,14.60
2019,05,27,01,25,14.60
2019,05,27,01,26,14.60
2019,05,27,01,27,14.60
2019,05,27,01,28,14.50
2019,05,27,01,29,14.50
2019,05,27,01,30,14.50
2019,05,27,01,31,14.50
2019,05,27,01,32,14.40
2019,05,27,01,33,14.40
2019,05,27,01,34,14.40
2019,05,27,01,35,14.40
2019,05,27,01,36,14.40
2019,05,27,01,37,14.30
2019,05,27,01,38,14.30
2019,05,27,01,39,14.30
2019,05,27,01,40,14.30
2019,05,27,01,41,14.30
2019,05,27,01,42,14.30
2019,05,27,01,43,14.30
2019,05,27,01,44,14.30
2019,05,27,01,45,14.30
2019,05,27,01,46,14.30
2019,05,27,01,47,14.30
2019,05,27,01,48,14.30
2019,05,27,01,49,14.20
2019,05,27,01,50,14.20
2019,05,27,01,51,14.20
2019,05,27,01,52,14.20
2019,05,27,01,53,14.20
2019,05,27,01,54,14.20
2019,05,27,01,55,14.20
2019,05,27,01,56,14.20
2019,05,27,01,57,14.20
2019,05,27,01,58,14.10
2019,05,27,01,59,14.10
2019,05,27,02,00,14.10
2019,05,27,02,01,14.10
2019,05,27,02,02,14.10
2019,05,27,02,03,14.10
2019,05,27,02,04,14.10
2019,05,27,02,05,14.00
2019,05,27,02,06,14.00
2019,05,27,02,07,14.00
2019,05,27,02,08,14.00
2019,05,27,02,09,14.00
2019,05,27,02,10,14.00
2019,05,27,02,11,14.00
2019,05,27,02,12,14.00
2019,05,27,02,13,13.90
2019,05,27,02,14,13.90
2019,05,27,02,15,13.90
2019,05,27,02,16,13.90
2019,05,27,02,17,13.90
2019,05,27,02,18,13.90
2019,05,27,02,19,13.90
2019,05,27,02,20,13.90
2019,05,27,02,21,13.80
2019,05,27,02,22,13.80
2019,05,27,02,23,13.80
2019,05,27,02,24,13.80
2019,05,27,02,25,13.80
2019,05,27,02,26,13.80
2019,05,27,02,27,13.80
2019,05,27,02,28,13.70
2019,05,27,02,29,13.70
2019,05,27,02,30,13.70
2019,05,27,02,31,13.70
2019,05,27,02,32,13.70
2019,05,27,02,33,13.70
2019,05,27,02,34,13.70
2019,05,27,02,35,13.70
2019,05,27,02,36,13.70
2019,05,27,02,37,13.70
2019,05,27,02,38,13.70
2019,05,27,02,39,13.70
2019,05,27,02,40,13.70
2019,05,27,02,41,13.70
2019,05,27,02,42,13.60
2019,05,27,02,43,13.60
2019,05,27,02,44,13.60
2019,05,27,02,45,13.60
2019,05,27,02,46,13.60
2019,05,27,02,47,13.60
2019,05,27,02,48,13.60
2019,05,27,02,49,13.60
2019,05,27,02,50,13.50
2019,05,27,02,51,13.50
2019,05,27,02,52,13.50
2019,05,27,02,53,13.50
2019,05,27,02,54,13.50
2019,05,27,02,55,13.40
2019,05,27,02,56,13.40
2019,05,27,02,57,13.40
2019,05,27,02,58,13.40
2019,05,27,02,59,13.40
2019,05,27,03,00,13.40
2019,05,27,03,01,13.40
2019,05,27,03,02,13.30
2019,05,27,03,03,13.30
2019,05,27,03,04,13.30
2019,05,27,03,05,13.30
2019,05,27,03,06,13.30
2019,05,27,03,07,13.30
2019,05,27,03,08,13.30
2019,05,27,03,09,13.30
2019,05,27,03,10,13.30
2019,05,27,03,11,13.20
2019,05,27,03,12,13.20
2019,05,27,03,13,13.20
2019,05,27,03,14,13.20
2019,05,27,03,15,13.20
2019,05,27,03,16,13.20
2019,05,27,03,17,13.20
2019,05,27,03,18,13.20
2019,05,27,03,19,13.20
2019,05,27,03,20,13.10
2019,05,27,03,21,13.10
2019,05,27,03,22,13.10
2019,05,27,03,23,13.10
2019,05,27,03,24,13.10
2019,05,27,03,25,13.10
2019,05,27,03,26,13.10
2019,05,27,03,27,13.10
2019,05,27,03,28,13.10
2019,05,27,03,29,13.10
2019,05,27,03,30,13.10
2019,05,27,03,31,13.10
2019,05,27,03,32,13.10
2019,05,27,03,33,13.10
2019,05,27,03,34,13.10
2019,05,27,03,35,13.10
2019,05,27,03,36,13.10
2019,05,27,03,37,13.00
2019,05,27,03,38,13.00
2019,05,27,03,39,13.00
2019,05,27,03,40,13.00
2019,05,27,03,41,12.90
2019,05,27,03,42,12.90
2019,05,27,03,43,12.90
2019,05,27,03,44,12.90
2019,05,27,03,45,12.90
2019,05,27,03,46,12.90
2019,05,27,03,47,12.80
2019,05,27,03,48,12.80
2019,05,27,03,49,12.80
2019,05,27,03,50,12.80
2019,05,27,03,51,12.80
2019,05,27,03,52,12.80
2019,05,27,03,53,12.80
2019,05,27,03,54,12.80
2019,05,27,03,55,12.80
2019,05,27,03,56,12.70
2019,05,27,03,57,12.70
2019,05,27,03,58,12.70
2019,05,27,03,59,12.70
2019,05,27,04,00,12.60
2019,05,27,04,01,12.60
2019,05,27,04,02,12.60
2019,05,27,04,03,12.60
2019,05,27,04,04,12.60
2019,05,27,04,05,12.50
2019,05,27,04,06,12.50
2019,05,27,04,07,12.50
2019,05,27,04,08,12.50
2019,05,27,04,09,12.40
2019,05,27,04,10,12.50
2019,05,27,04,11,12.40
2019,05,27,04,12,12.40
2019,05,27,04,13,12.40
2019,05,27,04,14,12.40
2019,05,27,04,15,12.50
2019,05,27,04,16,12.40
2019,05,27,04,17,12.50
2019,05,27,04,18,12.50
2019,05,27,04,19,12.40
2019,05,27,04,20,12.50
2019,05,27,04,21,12.50
2019,05,27,04,22,12.40
2019,05,27,04,23,12.50
2019,05,27,04,24,12.50
2019,05,27,04,25,12.50
2019,05,27,04,26,12.50
2019,05,27,04,27,12.50
2019,05,27,04,28,12.50
2019,05,27,04,29,12.50
2019,05,27,04,30,12.50
2019,05,27,04,31,12.50
2019,05,27,04,32,12.50
2019,05,27,04,33,12.50
2019,05,27,04,34,12.40
2019,05,27,04,35,12.40
2019,05,27,04,36,12.40
2019,05,27,04,37,12.40
2019,05,27,04,38,12.40
2019,05,27,04,39,12.40
2019,05,27,04,40,12.40
2019,05,27,04,41,12.40
2019,05,27,04,42,12.40
2019,05,27,04,43,12.40
2019,05,27,04,44,12.40
2019,05,27,04,45,12.40
2019,05,27,04,46,12.40
2019,05,27,04,47,12.40
2019,05,27,04,48,12.40
2019,05,27,04,49,12.40
2019,05,27,04,50,12.40
2019,05,27,04,51,12.30
2019,05,27,04,52,12.30
2019,05,27,04,53,12.30
2019,05,27,04,54,12.30
2019,05,27,04,55,12.30
2019,05,27,04,56,12.30
2019,05,27,04,57,12.30
2019,05,27,04,58,12.30
2019,05,27,04,59,12.30
2019,05,27,05,00,12.30
2019,05,27,05,01,12.30
2019,05,27,05,02,12.30
2019,05,27,05,03,12.30
2019,05,27,05,04,12.20
2019,05,27,05,05,12.20
2019,05,27,05,06,12.30
2019,05,27,05,07,12.30
2019,05,27,05,08,12.30
2019,05,27,05,09,12.30
2019,05,27,05,10,12.30
2019,05,27,05,11,12.30
2019,05,27,05,12,12.30
2019,05,27,05,13,12.30
2019,05,27,05,14,12.30
2019,05,27,05,15,12.20
2019,05,27,05,16,12.20
2019,05,27,05,17,12.20
2019,05,27,05,18,12.20
2019,05,27,05,19,12.20
2019,05,27,05,20,12.20
2019,05,27,05,21,12.20
2019,05,27,05,22,12.20
2019,05,27,05,23,12.10
2019,05,27,05,24,12.10
2019,05,27,05,25,12.10
2019,05,27,05,26,12.10
2019,05,27,05,27,12.10
2019,05,27,05,28,12.10
2019,05,27,05,29,12.00
2019,05,27,05,30,12.00
2019,05,27,05,31,12.00
2019,05,27,05,32,11.90
2019,05,27,05,33,11.90
2019,05,27,05,34,11.90
2019,05,27,05,35,11.90
2019,05,27,05,36,11.90
2019,05,27,05,37,11.90
2019,05,27,05,38,11.90
2019,05,27,05,39,11.90
2019,05,27,05,40,11.90
2019,05,27,05,41,11.90
2019,05,27,05,42,11.90
2019,05,27,05,43,11.90
2019,05,27,05,44,11.80
2019,05,27,05,45,11.90
2019,05,27,05,46,11.90
2019,05,27,05,47,11.90
2019,05,27,05,48,11.80
2019,05,27,05,49,11.80
2019,05,27,05,50,11.80
2019,05,27,05,51,11.80
2019,05,27,05,52,11.90
2019,05,27,05,53,11.90
2019,05,27,05,54,11.90
2019,05,27,05,55,11.90
2019,05,27,05,56,11.90
2019,05,27,05,57,11.90
2019,05,27,05,58,11.90
2019,05,27,05,59,11.90
2019,05,27,06,00,11.90
2019,05,27,06,01,11.90
2019,05,27,06,02,11.80
2019,05,27,06,03,11.80
2019,05,27,06,04,11.90
2019,05,27,06,05,11.90
2019,05,27,06,06,11.90
2019,05,27,06,07,11.90
2019,05,27,06,08,12.00
2019,05,27,06,09,12.00
2019,05,27,06,10,12.00
2019,05,27,06,11,12.10
2019,05,27,06,12,12.10
2019,05,27,06,13,12.10
2019,05,27,06,14,12.10
2019,05,27,06,15,12.20
2019,05,27,06,16,12.20
2019,05,27,06,17,12.20
2019,05,27,06,18,12.20
2019,05,27,06,19,12.30
2019,05,27,06,20,12.20
2019,05,27,06,21,12.20
2019,05,27,06,22,12.20
2019,05,27,06,23,12.20
2019,05,27,06,24,12.20
2019,05,27,06,25,12.20
2019,05,27,06,26,12.20
2019,05,27,06,27,12.20
2019,05,27,06,28,12.20
2019,05,27,06,29,12.20
2019,05,27,06,30,12.20
2019,05,27,06,31,12.20
2019,05,27,06,32,12.20
2019,05,27,06,33,12.20
2019,05,27,06,34,12.20
2019,05,27,06,35,12.30
2019,05,27,06,36,12.30
2019,05,27,06,37,12.30
2019,05,27,06,38,12.30
2019,05,27,06,39,12.30
2019,05,27,06,40,12.30
2019,05,27,06,41,12.30
2019,05,27,06,42,12.30
2019,05,27,06,43,12.30
2019,05,27,06,44,12.30
2019,05,27,06,45,12.30
2019,05,27,06,46,12.30
2019,05,27,06,47,12.30
2019,05,27,06,48,12.40
2019,05,27,06,49,12.40
2019,05,27,06,50,12.40
2019,05,27,06,51,12.50
2019,05,27,06,52,12.50
2019,05,27,06,53,12.60
2019,05,27,06,54,12.60
2019,05,27,06,55,12.60
2019,05,27,06,56,12.70
2019,05,27,06,57,12.70
2019,05,27,06,58,12.80
2019,05,27,06,59,12.80
2019,05,27,07,00,12.80
2019,05,27,07,01,12.80
2019,05,27,07,02,12.90
2019,05,27,07,03,12.90
2019,05,27,07,04,13.00
2019,05,27,07,05,13.00
2019,05,27,07,06,13.10
2019,05,27,07,07,13.10
2019,05,27,07,08,13.20
2019,05,27,07,09,13.20
2019,05,27,07,10,13.20
2019,05,27,07,11,13.20
2019,05,27,07,12,13.20
2019,05,27,07,13,13.30
2019,05,27,07,14,13.30
2019,05,27,07,15,13.30
2019,05,27,07,16,13.40
2019,05,27,07,17,13.40
2019,05,27,07,18,13.50
2019,05,27,07,19,13.50
2019,05,27,07,20,13.60
2019,05,27,07,21,13.60
2019,05,27,07,22,13.60
2019,05,27,07,23,13.70
2019,05,27,07,24,13.70
2019,05,27,07,25,13.70
2019,05,27,07,26,13.80
2019,05,27,07,27,13.80
2019,05,27,07,28,13.80
2019,05,27,07,29,13.90
2019,05,27,07,30,13.90
2019,05,27,07,31,14.00
2019,05,27,07,32,14.00
2019,05,27,07,33,14.10
2019,05,27,07,34,14.10
2019,05,27,07,35,14.10
2019,05,27,07,36,14.20
2019,05,27,07,37,14.20
2019,05,27,07,38,14.30
2019,05,27,07,39,14.30
2019,05,27,07,40,14.40
2019,05,27,07,41,14.40
2019,05,27,07,42,14.50
2019,05,27,07,43,14.50
2019,05,27,07,44,14.60
2019,05,27,07,45,14.60
2019,05,27,07,46,14.70
2019,05,27,07,47,14.70
2019,05,27,07,48,14.80
2019,05,27,07,49,14.80
2019,05,27,07,50,14.90
2019,05,27,07,51,14.90
2019,05,27,07,52,15.00
2019,05,27,07,53,15.10
2019,05,27,07,54,15.10
2019,05,27,07,55,15.20
2019,05,27,07,56,15.30
2019,05,27,07,57,15.30
2019,05,27,07,58,15.40
2019,05,27,07,59,15.40
2019,05,27,08,00,15.50
2019,05,27,08,01,15.60
2019,05,27,08,02,15.60
2019,05,27,08,03,15.70
2019,05,27,08,04,15.80
2019,05,27,08,05,16.00
2019,05,27,08,06,16.10
2019,05,27,08,07,16.20
2019,05,27,08,08,16.40
2019,05,27,08,09,16.70
2019,05,27,08,10,16.80
2019,05,27,08,11,17.00
2019,05,27,08,12,17.10
2019,05,27,08,13,17.20
2019,05,27,08,14,17.30
2019,05,27,08,15,17.50
2019,05,27,08,16,17.60
2019,05,27,08,17,17.70
2019,05,27,08,18,17.90
2019,05,27,08,19,18.00
2019,05,27,08,20,18.20
2019,05,27,08,21,18.20
2019,05,27,08,22,18.30
2019,05,27,08,23,18.30
2019,05,27,08,24,18.30
2019,05,27,08,25,18.30
2019,05,27,08,26,18.40
2019,05,27,08,27,18.40
2019,05,27,08,28,18.50
2019,05,27,08,29,18.60
2019,05,27,08,30,18.70
2019,05,27,08,31,18.70
2019,05,27,08,32,18.90
2019,05,27,08,33,19.00
2019,05,27,08,34,19.10
2019,05,27,08,35,19.20
2019,05,27,08,36,19.30
2019,05,27,08,37,19.40
2019,05,27,08,38,19.50
2019,05,27,08,39,19.60
2019,05,27,08,40,19.70
2019,05,27,08,41,19.80
2019,05,27,08,42,19.90
2019,05,27,08,43,20.00
2019,05,27,08,44,20.00
2019,05,27,08,45,20.10
2019,05,27,08,46,20.20
2019,05,27,08,47,20.30
2019,05,27,08,48,20.30
2019,05,27,08,49,20.40
2019,05,27,08,50,20.50
2019,05,27,08,51,20.60
2019,05,27,08,52,20.60
2019,05,27,08,53,20.70
2019,05,27,08,54,20.80
2019,05,27,08,55,20.80
2019,05,27,08,56,20.90
2019,05,27,08,57,20.80
2019,05,27,08,58,20.70
2019,05,27,08,59,20.70
2019,05,27,09,00,20.60
2019,05,27,09,01,20.50
2019,05,27,09,02,20.50
2019,05,27,09,03,20.30
2019,05,27,09,04,20.20
2019,05,27,09,05,20.10
2019,05,27,09,06,20.00
2019,05,27,09,07,19.90
2019,05,27,09,08,19.80
2019,05,27,09,09,19.70
2019,05,27,09,10,19.70
2019,05,27,09,11,19.60
2019,05,27,09,12,19.60
2019,05,27,09,13,19.70
2019,05,27,09,14,19.70
2019,05,27,09,15,19.80
2019,05,27,09,16,19.90
2019,05,27,09,17,20.00
2019,05,27,09,18,20.00
2019,05,27,09,19,20.10
2019,05,27,09,20,20.10
2019,05,27,09,21,20.20
2019,05,27,09,22,20.20
2019,05,27,09,23,20.30
2019,05,27,09,24,20.30
2019,05,27,09,25,20.40
2019,05,27,09,26,20.40
2019,05,27,09,27,20.50
2019,05,27,09,28,20.50
2019,05,27,09,29,20.50
2019,05,27,09,30,20.50
2019,05,27,09,31,20.50
2019,05,27,09,32,20.50
2019,05,27,09,33,20.60
2019,05,27,09,34,20.60
2019,05,27,09,35,20.60
2019,05,27,09,36,20.70
2019,05,27,09,37,20.80
2019,05,27,09,38,20.80
2019,05,27,09,39,20.80
2019,05,27,09,40,20.90
2019,05,27,09,41,20.90
2019,05,27,09,42,20.90
2019,05,27,09,43,20.90
2019,05,27,09,44,20.90
2019,05,27,09,45,20.90
2019,05,27,09,46,20.80
2019,05,27,09,47,20.80
2019,05,27,09,48,20.80
2019,05,27,09,49,20.80
2019,05,27,09,50,20.80
2019,05,27,09,51,20.80
2019,05,27,09,52,20.90
2019,05,27,09,53,20.90
2019,05,27,09,54,21.00
2019,05,27,09,55,21.10
2019,05,27,09,56,21.10
2019,05,27,09,57,21.20
2019,05,27,09,58,21.30
2019,05,27,09,59,21.40
2019,05,27,10,00,21.50
2019,05,27,10,01,21.60
2019,05,27,10,02,21.60
2019,05,27,10,03,21.70
2019,05,27,10,04,21.70
2019,05,27,10,05,21.70
2019,05,27,10,06,21.80
2019,05,27,10,07,21.80
2019,05,27,10,08,21.80
2019,05,27,10,09,21.80
2019,05,27,10,10,21.80
2019,05,27,10,11,21.70
2019,05,27,10,12,21.60
2019,05,27,10,13,21.50
2019,05,27,10,14,21.50
2019,05,27,10,15,21.50
2019,05,27,10,16,21.50
2019,05,27,10,17,21.40
2019,05,27,10,18,21.30
2019,05,27,10,19,21.20
2019,05,27,10,20,21.10
2019,05,27,10,21,21.10
2019,05,27,10,22,21.10
2019,05,27,10,23,21.00
2019,05,27,10,24,21.00
2019,05,27,10,25,21.00
2019,05,27,10,26,20.90
2019,05,27,10,27,20.90
2019,05,27,10,28,20.90
2019,05,27,10,29,20.90
2019,05,27,10,30,20.90
2019,05,27,10,31,20.90
2019,05,27,10,32,21.00
2019,05,27,10,33,21.10
2019,05,27,10,34,21.20
2019,05,27,10,35,21.30
2019,05,27,10,36,21.40
2019,05,27,10,37,21.50
2019,05,27,10,38,21.50
2019,05,27,10,39,21.50
2019,05,27,10,40,21.60
2019,05,27,10,41,21.60
2019,05,27,10,42,21.60
2019,05,27,10,43,21.70
2019,05,27,10,44,21.70
2019,05,27,10,45,21.70
2019,05,27,10,46,21.70
2019,05,27,10,47,21.80
2019,05,27,10,48,21.90
2019,05,27,10,49,22.00
2019,05,27,10,50,22.00
2019,05,27,10,51,22.00
2019,05,27,10,52,22.10
2019,05,27,10,53,22.10
2019,05,27,10,54,22.20
2019,05,27,10,55,22.20
2019,05,27,10,56,22.20
2019,05,27,10,57,22.20
2019,05,27,10,58,22.10
2019,05,27,10,59,22.10
2019,05,27,11,00,22.10
2019,05,27,11,01,22.10
2019,05,27,11,02,22.10
2019,05,27,11,03,22.10
2019,05,27,11,04,22.10
2019,05,27,11,05,22.10
2019,05,27,11,06,22.10
2019,05,27,11,07,22.10
2019,05,27,11,08,22.10
2019,05,27,11,09,22.00
2019,05,27,11,10,22.00
2019,05,27,11,11,21.90
2019,05,27,11,12,21.90
2019,05,27,11,13,21.80
2019,05,27,11,14,21.80
2019,05,27,11,15,21.80
2019,05,27,11,16,21.80
2019,05,27,11,17,21.80
2019,05,27,11,18,21.70
2019,05,27,11,19,21.70
2019,05,27,11,20,21.70
2019,05,27,11,21,21.60
2019,05,27,11,22,21.60
2019,05,27,11,23,21.60
2019,05,27,11,24,21.50
2019,05,27,11,25,21.60
2019,05,27,11,26,21.60
2019,05,27,11,27,21.70
2019,05,27,11,28,21.80
2019,05,27,11,29,21.90
2019,05,27,11,30,22.00
2019,05,27,11,31,22.10
2019,05,27,11,32,22.20
2019,05,27,11,33,22.30
2019,05,27,11,34,22.40
2019,05,27,11,35,22.40
2019,05,27,11,36,22.40
2019,05,27,11,37,22.40
2019,05,27,11,38,22.40
2019,05,27,11,39,22.40
2019,05,27,11,40,22.40
2019,05,27,11,41,22.50
2019,05,27,11,42,22.60
2019,05,27,11,43,22.70
2019,05,27,11,44,22.80
2019,05,27,11,45,22.80
2019,05,27,11,46,22.90
2019,05,27,11,47,23.10
2019,05,27,11,48,23.20
2019,05,27,11,49,23.30
2019,05,27,11,50,23.30
2019,05,27,11,51,23.30
2019,05,27,11,52,23.20
2019,05,27,11,53,23.10
2019,05,27,11,54,22.90
2019,05,27,11,55,22.80
2019,05,27,11,56,22.60
2019,05,27,11,57,22.40
2019,05,27,11,58,22.30
2019,05,27,11,59,22.30
2019,05,27,12,00,22.30
2019,05,27,12,01,22.30
2019,05,27,12,02,22.30
2019,05,27,12,03,22.30
2019,05,27,12,04,22.30
2019,05,27,12,05,22.40
2019,05,27,12,06,22.40
2019,05,27,12,07,22.50
2019,05,27,12,08,22.50
2019,05,27,12,09,22.50
2019,05,27,12,10,22.50
2019,05,27,12,11,22.50
2019,05,27,12,12,22.70
2019,05,27,12,13,22.80
2019,05,27,12,14,22.90
2019,05,27,12,15,22.90
2019,05,27,12,16,23.00
2019,05,27,12,17,23.00
2019,05,27,12,18,22.90
2019,05,27,12,19,23.00
2019,05,27,12,20,23.10
2019,05,27,12,21,23.10
2019,05,27,12,22,23.10
2019,05,27,12,23,23.10
2019,05,27,12,24,23.20
2019,05,27,12,25,23.20
2019,05,27,12,26,23.30
2019,05,27,12,27,23.40
2019,05,27,12,28,23.50
2019,05,27,12,29,23.60
2019,05,27,12,30,23.70
2019,05,27,12,31,23.70
2019,05,27,12,32,23.80
2019,05,27,12,33,23.80
2019,05,27,12,34,23.80
2019,05,27,12,35,23.70
2019,05,27,12,36,23.70
2019,05,27,12,37,23.70
2019,05,27,12,38,23.70
2019,05,27,12,39,23.70
2019,05,27,12,40,23.80
2019,05,27,12,41,23.90
2019,05,27,12,42,24.10
2019,05,27,12,43,24.10
2019,05,27,12,44,24.00
2019,05,27,12,45,24.00
2019,05,27,12,46,23.80
2019,05,27,12,47,23.80
2019,05,27,12,48,23.60
2019,05,27,12,49,23.40
2019,05,27,12,50,23.30
2019,05,27,12,51,23.30
2019,05,27,12,52,23.20
2019,05,27,12,53,23.20
2019,05,27,12,54,23.20
2019,05,27,12,55,23.20
2019,05,27,12,56,23.20
2019,05,27,12,57,23.20
2019,05,27,12,58,23.30
2019,05,27,12,59,23.30
2019,05,27,13,00,23.40
2019,05,27,13,01,23.40
2019,05,27,13,02,23.40
2019,05,27,13,03,23.30
2019,05,27,13,04,23.30
2019,05,27,13,05,23.30
2019,05,27,13,06,23.30
2019,05,27,13,07,23.30
2019,05,27,13,08,23.30
2019,05,27,13,09,23.20
2019,05,27,13,10,23.20
2019,05,27,13,11,23.10
2019,05,27,13,12,23.10
2019,05,27,13,13,23.10
2019,05,27,13,14,23.30
2019,05,27,13,15,23.40
2019,05,27,13,16,23.50
2019,05,27,13,17,23.60
2019,05,27,13,18,23.60
2019,05,27,13,19,23.60
2019,05,27,13,20,23.60
2019,05,27,13,21,23.60
2019,05,27,13,22,23.50
2019,05,27,13,23,23.30
2019,05,27,13,24,23.20
2019,05,27,13,25,23.10
2019,05,27,13,26,23.10
2019,05,27,13,27,23.00
2019,05,27,13,28,22.90
2019,05,27,13,29,22.90
2019,05,27,13,30,22.90
2019,05,27,13,31,22.80
2019,05,27,13,32,22.70
2019,05,27,13,33,22.70
2019,05,27,13,34,22.60
2019,05,27,13,35,22.60
2019,05,27,13,36,22.60
2019,05,27,13,37,22.70
2019,05,27,13,38,22.70
2019,05,27,13,39,22.60
2019,05,27,13,40,22.60
2019,05,27,13,41,22.50
2019,05,27,13,42,22.40
2019,05,27,13,43,22.40
2019,05,27,13,44,22.40
2019,05,27,13,45,22.40
2019,05,27,13,46,22.40
2019,05,27,13,47,22.50
2019,05,27,13,48,22.60
2019,05,27,13,49,22.60
2019,05,27,13,50,22.70
2019,05,27,13,51,22.80
2019,05,27,13,52,22.90
2019,05,27,13,53,23.10
2019,05,27,13,54,23.30
2019,05,27,13,55,23.40
2019,05,27,13,56,23.40
2019,05,27,13,57,23.50
2019,05,27,13,58,23.60
2019,05,27,13,59,23.70
2019,05,27,14,00,23.80
2019,05,27,14,01,23.80
2019,05,27,14,02,23.80
2019,05,27,14,03,23.90
2019,05,27,14,04,23.80
2019,05,27,14,05,23.70
2019,05,27,14,06,23.60
2019,05,27,14,07,23.50
2019,05,27,14,08,23.40
2019,05,27,14,09,23.40
2019,05,27,14,10,23.40
2019,05,27,14,11,23.50
2019,05,27,14,12,23.60
2019,05,27,14,13,23.60
2019,05,27,14,14,23.70
2019,05,27,14,15,23.70
2019,05,27,14,16,23.70
2019,05,27,14,17,23.70
2019,05,27,14,18,23.70
2019,05,27,14,19,23.70
2019,05,27,14,20,23.70
2019,05,27,14,21,23.70
2019,05,27,14,22,23.70
2019,05,27,14,23,23.70
2019,05,27,14,24,23.70
2019,05,27,14,25,23.70
2019,05,27,14,26,23.80
2019,05,27,14,27,23.80
2019,05,27,14,28,23.80
2019,05,27,14,29,23.80
2019,05,27,14,30,23.90
2019,05,27,14,31,24.00
2019,05,27,14,32,24.00
2019,05,27,14,33,24.10
2019,05,27,14,34,24.10
2019,05,27,14,35,24.10
2019,05,27,14,36,24.00
2019,05,27,14,37,23.90
2019,05,27,14,38,23.90
2019,05,27,14,39,23.90
2019,05,27,14,40,23.80
2019,05,27,14,41,23.80
2019,05,27,14,42,23.80
2019,05,27,14,43,23.80
2019,05,27,14,44,23.80
2019,05,27,14,45,23.80
2019,05,27,14,46,23.70
2019,05,27,14,47,23.70
2019,05,27,14,48,23.70
2019,05,27,14,49,23.70
2019,05,27,14,50,23.80
2019,05,27,14,51,23.80
2019,05,27,14,52,23.90
2019,05,27,14,53,24.00
2019,05,27,14,54,24.10
2019,05,27,14,55,24.20
2019,05,27,14,56,24.30
2019,05,27,14,57,24.40
2019,05,27,14,58,24.40
2019,05,27,14,59,24.50
2019,05,27,15,00,24.50
2019,05,27,15,01,24.60
2019,05,27,15,02,24.70
2019,05,27,15,03,24.70
2019,05,27,15,04,24.80
2019,05,27,15,05,24.90
2019,05,27,15,06,24.90
2019,05,27,15,07,25.00
2019,05,27,15,08,25.10
2019,05,27,15,09,25.10
2019,05,27,15,10,25.20
2019,05,27,15,11,25.20
2019,05,27,15,12,25.30
2019,05,27,15,13,25.30
2019,05,27,15,14,25.30
2019,05,27,15,15,25.20
2019,05,27,15,16,25.20
2019,05,27,15,17,25.10
2019,05,27,15,18,25.00
2019,05,27,15,19,25.00
2019,05,27,15,20,24.90
2019,05,27,15,21,24.80
2019,05,27,15,22,24.80
2019,05,27,15,23,24.80
2019,05,27,15,24,24.90
2019,05,27,15,25,25.00
2019,05,27,15,26,25.00
2019,05,27,15,27,25.00
2019,05,27,15,28,25.00
2019,05,27,15,29,25.00
2019,05,27,15,30,25.00
2019,05,27,15,31,25.00
2019,05,27,15,32,24.90
2019,05,27,15,33,24.90
2019,05,27,15,34,25.00
2019,05,27,15,35,25.10
2019,05,27,15,36,25.20
2019,05,27,15,37,25.30
2019,05,27,15,38,25.30
2019,05,27,15,39,25.40
2019,05,27,15,40,25.50
2019,05,27,15,41,25.50
2019,05,27,15,42,25.50
2019,05,27,15,43,25.50
2019,05,27,15,44,25.50
2019,05,27,15,45,25.50
2019,05,27,15,46,25.50
2019,05,27,15,47,25.40
2019,05,27,15,48,25.50
2019,05,27,15,49,25.60
2019,05,27,15,50,25.70
2019,05,27,15,51,25.80
2019,05,27,15,52,25.80
2019,05,27,15,53,25.80
2019,05,27,15,54,25.90
2019,05,27,15,55,25.90
2019,05,27,15,56,25.90
2019,05,27,15,57,26.00
2019,05,27,15,58,26.00
2019,05,27,15,59,26.00
2019,05,27,16,00,26.00
2019,05,27,16,01,26.10
2019,05,27,16,02,26.10
2019,05,27,16,03,26.10
2019,05,27,16,04,26.20
2019,05,27,16,05,26.30
2019,05,27,16,06,26.30
2019,05,27,16,07,26.30
2019,05,27,16,08,26.40
2019,05,27,16,09,26.30
2019,05,27,16,10,26.30
2019,05,27,16,11,26.30
2019,05,27,16,12,26.30
2019,05,27,16,13,26.30
2019,05,27,16,14,26.30
2019,05,27,16,15,26.40
2019,05,27,16,16,26.50
2019,05,27,16,17,26.50
2019,05,27,16,18,26.60
2019,05,27,16,19,26.70
2019,05,27,16,20,26.70
2019,05,27,16,21,26.70
2019,05,27,16,22,26.70
2019,05,27,16,23,26.70
2019,05,27,16,24,26.70
2019,05,27,16,25,26.60
2019,05,27,16,26,26.60
2019,05,27,16,27,26.60
2019,05,27,16,28,26.60
2019,05,27,16,29,26.70
2019,05,27,16,30,26.70
2019,05,27,16,31,26.80
2019,05,27,16,32,26.90
2019,05,27,16,33,27.00
2019,05,27,16,34,27.00
2019,05,27,16,35,27.10
2019,05,27,16,36,27.10
2019,05,27,16,37,27.20
2019,05,27,16,38,27.30
2019,05,27,16,39,27.40
2019,05,27,16,40,27.40
2019,05,27,16,41,27.50
2019,05,27,16,42,27.50
2019,05,27,16,43,27.50
2019,05,27,16,44,27.50
2019,05,27,16,45,27.60
2019,05,27,16,46,27.60
2019,05,27,16,47,27.60
2019,05,27,16,48,27.60
2019,05,27,16,49,27.60
2019,05,27,16,50,27.60
2019,05,27,16,51,27.60
2019,05,27,16,52,27.60
2019,05,27,16,53,27.70
2019,05,27,16,54,27.70
2019,05,27,16,55,27.70
2019,05,27,16,56,27.60
2019,05,27,16,57,27.60
2019,05,27,16,58,27.70
2019,05,27,16,59,27.70
2019,05,27,17,00,27.70
2019,05,27,17,01,27.70
2019,05,27,17,02,27.60
2019,05,27,17,03,27.60
2019,05,27,17,04,27.50
2019,05,27,17,05,27.50
2019,05,27,17,06,27.40
2019,05,27,17,07,27.40
2019,05,27,17,08,27.50
2019,05,27,17,09,27.60
2019,05,27,17,10,27.60
2019,05,27,17,11,27.70
2019,05,27,17,12,27.70
2019,05,27,17,13,27.80
2019,05,27,17,14,27.80
2019,05,27,17,15,27.80
2019,05,27,17,16,27.80
2019,05,27,17,17,27.80
2019,05,27,17,18,27.80
2019,05,27,17,19,27.90